Regional Weather Roundup
Issued by NWS Sterling, VA

Home | Current Version | Previous Version | Graphics & Text | Print | Product List | Glossary On
Versions: 1 2 3 4 5 6 7 8 9 10 11 12 13 14 15 16 17 18 19 20 21 22 23 24 25 26 27 28 29 30 31 32 33 34 35 36 37 38 39 40 41 42 43 44 45 46 47 48 49 50
000
ASUS41 KLWX 300410
RWRLWX

REGIONAL WEATHER ROUNDUP
NATIONAL WEATHER SERVICE BALTIMORE MD/WASHINGTON DC
1200 AM EDT SUN AUG 30 2015

Note: "FAIR" indicates few or no clouds below 12,000 feet
with no significant weather and/or obstructions to visibility.
 TC=TEMPERATURE CELSIUS

 * =Non NWS site. Station does not report precipitation (e.g. rain,
    snow, etc.), thunder, or fog.

DCZ001-MDZ009-015-VAZ040>042-051-053>054-300500-
WASHINGTON METRO

CITY           SKY/WX    TMP DP  RH WIND       PRES   REMARKS
WASHINGTON NAT MOCLDY    74  64  71 S14       30.13S
DULLES         PTCLDY    73  64  73 S8        30.12S
ANDREWS AFB    CLEAR     71  64  79 S6        30.13S
FT BELVOIR     CLEAR     72  65  78 VRB5      30.13S
QUANTICO       CLEAR     76  64  66 SW16      30.14S
COLLEGE PARK*  CLEAR     75  63  64 S5        30.13S
LEESBURG*      CLEAR     73  68  83 S8        30.13S
MANASSAS*      CLEAR     70  66  88 SE3       30.13S
GAITHERSBURG*  PTCLDY    73  63  68 S7        30.17S

$$

MDZ006>007-011-014-300500-
BALTIMORE METRO

CITY           SKY/WX    TMP DP  RH WIND       PRES   REMARKS
BWI AIRPORT    MOCLDY    72  63  73 S3        30.12S
MD SCIENCE CTR   N/A     75  62  64 MISG      30.13S
MARTIN STATE   PTCLDY    75  68  78 S3        30.14S
ANNAPOLIS      CLEAR     74  63  68 VRB5      30.12F
FORT MEADE*    CLEAR     64  63  94 CALM      30.15S

$$

MDZ012-015-019>023-300500-
MARYLAND EASTERN SHORE

CITY           SKY/WX    TMP DP  RH WIND       PRES   REMARKS
OCEAN CITY     CLOUDY    75  62  64 S3        30.15S
SALISBURY      MOCLDY    65  62  90 E3        30.14F
BAY BRIDGE AP*   N/A     73  64  73 S7        30.13S
CAMBRIDGE*     CLEAR     70  63  78 CALM      30.13F

$$

MDZ017>025-300500-
SOUTHERN MARYLAND

CITY           SKY/WX    TMP DP  RH WIND       PRES   REMARKS
PATUXENT RIVER PTCLDY    70  64  81 S3        30.14S
ST INIGOES     PTCLDY    73  65  75 S3        30.14S
LEONARDTOWN*   PTCLDY    70  63  78 CALM      30.16S

$$

MDZ003>005-300500-
NORTH CENTRAL MARYLAND

CITY           SKY/WX    TMP DP  RH WIND       PRES   REMARKS
FREDERICK*     PTCLDY    68  64  88 CALM      30.14F
HAGERSTOWN APT PTCLDY    74  63  68 SE6       30.11S
WESTMINSTER*   PTCLDY    72  66  83 S5        30.14S

$$

MDZ501>502-300500-
WESTERN MARYLAND

CITY           SKY/WX    TMP DP  RH WIND       PRES   REMARKS
OAKLAND*       CLEAR     64  55  72 SW5       30.22F
CUMBERLAND*    CLEAR     70  63  78 N3        30.15S

$$

VAZ025>031-300500-
SHENANDOAH VALLEY

CITY           SKY/WX    TMP DP  RH WIND       PRES   REMARKS
WINCHESTER*    CLEAR     73  63  68 SW3       30.11S
FRONT ROYAL*   FAIR      68  63  83 S5        30.11F
LURAY*         MOCLDY    66  63  88 CALM      30.14S
NEW MARKET*    FAIR      67  63  86 CALM      30.13S
STAUNTON*      MOCLDY    71  61  71 CALM      30.18S
WAYNESBORO*    FAIR      71  61  70 CALM      30.17S

$$

WVZ021-048>050-054>055-300500-
EASTERN WEST VIRGINIA PANHANDLE

CITY           SKY/WX    TMP DP  RH WIND       PRES   REMARKS
MARTINSBURG    CLEAR     66  64  93 CALM      30.11S
PETERSBURG*    CLEAR     63  61  93 CALM      30.15S

$$

VAZ036>039-050-300500-
CENTRAL FOOTHILLS

CITY           SKY/WX    TMP DP  RH WIND       PRES   REMARKS
CHARLOTTESVILL PTCLDY    72  64  76 SW6       30.14S
CULPEPER*      CLEAR     69  64  83 CALM      30.14S
ORANGE*        MOCLDY    66  64  94 CALM      30.15S
GORDONSVILLE*  FAIR      66  65  97 CALM      30.13F
WARRENTON*     FAIR      71  66  84 CALM      30.13S

$$

VAZ055>057-300500-
NORTH AND CENTRAL PIEDMONT

CITY           SKY/WX    TMP DP  RH WIND       PRES   REMARKS
FREDERICKSBRG* CLEAR     73  65  77 S6        30.13S
STAFFORD*      CLEAR     68  63  83 CALM      30.18S

$$

NCZ024-NYZ072-PAZ021-071-VAZ022-071-300500-
OTHER REGIONAL OBSERVATIONS

CITY           SKY/WX    TMP DP  RH WIND       PRES   REMARKS
NEW YORK CITY  MOCLDY    76  59  55 VRB6G21   30.13S
PHILADELPHIA   MOCLDY    74  62  66 S12       30.13S
PITTSBURGH     MOCLDY    73  63  70 CALM      30.10F
ROANOKE        MOCLDY    71  62  73 W3        30.19S
RICHMOND       MOCLDY    70  61  73 CALM      30.15S
RALEIGH        CLOUDY    71  62  73 CALM      30.16S

$$

ANZ530>537-300500-
MARINE OBSERVATIONS

STATION/POSITION TIME  TEMP    WIND        PRES
                       AIR SEA DIR/SP/G
                 (UTC) (F)     (DEG/KT/KT) (MB)
THOMAS PT LIGHT  NOT AVBL

$$



USA.gov is the U.S. government's official web portal to all federal, state and local government web resources and services.